User: anonymous   Login
Location: Ashtead
(51.3000°N, 0.3000°W)
Time: 04:48:55
(UTC+00:00)
Language:

USA 281 - Orbit

View from above orbital plane
View from above orbital plane
View from above satellite
View from above satellite

Ground track
Ground track

The orbit data is extracted from the following two-line orbital elements,

1 43145U 18005A   24058.77175434 0.00000000  00000-0  00000-0 0    01
2 43145 106.0122  89.3797 0000831 105.4403 254.5597 13.48064540    05
Epoch (UTC): 27 February 2024 18:31:19
Eccentricity: 0.0000831
inclination: 106.0122°
perigee height: 1079 km
apogee height: 1080 km
right ascension of ascending node: 89.3797°
argument of perigee: 105.4403°
revolutions per day: 13.48064540
mean anomaly at epoch: 254.5597°
orbit number at epoch: 0

The dashed part of the orbit path shows where the satellite is in the earth's shadow,  

DLR